Time,TemperatureF,DewpointF,PressureIn,WindDirection,WindDirectionDegrees,WindSpeedMPH,WindSpeedGustMPH,Humidity,HourlyPrecipIn,Conditions,Clouds,dailyrainin,SolarRadiationWatts/m^2,SoftwareType,DateUTC
2018-01-20 00:03:00,24.2,23.0,28.79,SSE,157,6.0,7.0,94,0.00,,,0.00,0,Rainwise IP-100,2018-01-20 05:03:00,
2018-01-20 00:08:00,24.1,23.0,28.78,SSE,157,2.0,7.0,94,0.00,,,0.00,0,Rainwise IP-100,2018-01-20 05:08:00,
2018-01-20 00:13:00,23.9,23.0,28.78,SSE,157,2.0,6.0,94,0.00,,,0.00,0,Rainwise IP-100,2018-01-20 05:13:00,
2018-01-20 00:18:00,23.8,23.0,28.78,SSE,157,2.0,4.0,94,0.00,,,0.00,0,Rainwise IP-100,2018-01-20 05:18:00,
2018-01-20 00:23:00,23.7,23.0,28.77,SSE,157,1.0,6.0,94,0.00,,,0.00,0,Rainwise IP-100,2018-01-20 05:23:00,
2018-01-20 00:28:00,23.3,23.0,28.77,WSW,247,1.0,6.0,97,0.00,,,0.00,0,Rainwise IP-100,2018-01-20 05:28:00,
2018-01-20 00:33:00,22.9,23.0,28.77,South,180,1.0,3.0,96,0.00,,,0.00,0,Rainwise IP-100,2018-01-20 05:33:00,
2018-01-20 00:38:00,22.9,21.0,28.76,SE,135,0.0,2.0,95,0.00,,,0.00,0,Rainwise IP-100,2018-01-20 05:38:00,
2018-01-20 00:44:00,22.8,23.0,28.75,ESE,112,0.0,3.0,96,0.00,,,0.00,0,Rainwise IP-100,2018-01-20 05:44:00,
2018-01-20 00:49:00,22.6,23.0,28.76,ESE,112,0.0,1.0,97,0.00,,,0.00,0,Rainwise IP-100,2018-01-20 05:49:00,
2018-01-20 00:54:00,21.9,21.0,28.76,ESE,112,1.0,2.0,95,0.00,,,0.00,0,Rainwise IP-100,2018-01-20 05:54:00,
2018-01-20 00:59:00,21.7,23.0,28.75,ESE,112,0.0,2.0,99,0.00,,,0.00,0,Rainwise IP-100,2018-01-20 05:59:00,
2018-01-20 01:04:00,21.4,21.0,28.75,ESE,112,0.0,0.0,100,0.00,,,0.00,0,Rainwise IP-100,2018-01-20 06:04:00,
2018-01-20 01:09:00,20.9,21.0,28.76,ESE,112,0.0,0.0,99,0.00,,,0.00,0,Rainwise IP-100,2018-01-20 06:09:00,
2018-01-20 01:14:00,20.7,21.0,28.76,ESE,112,0.0,1.0,100,0.00,,,0.00,0,Rainwise IP-100,2018-01-20 06:14:00,
2018-01-20 01:20:00,20.4,21.0,28.77,ESE,112,0.0,0.0,100,0.00,,,0.00,0,Rainwise IP-100,2018-01-20 06:20:00,
2018-01-20 01:25:00,20.1,21.0,28.76,ESE,112,0.0,1.0,100,0.00,,,0.00,0,Rainwise IP-100,2018-01-20 06:25:00,
2018-01-20 01:30:00,19.9,21.0,28.76,ESE,112,0.0,0.0,100,0.00,,,0.00,0,Rainwise IP-100,2018-01-20 06:30:00,
2018-01-20 01:35:00,20.8,21.0,28.75,SSE,157,2.0,5.0,100,0.00,,,0.00,0,Rainwise IP-100,2018-01-20 06:35:00,
2018-01-20 01:40:00,21.5,23.0,28.76,SSE,157,5.0,6.0,100,0.00,,,0.00,0,Rainwise IP-100,2018-01-20 06:40:00,
2018-01-20 01:45:00,21.9,23.0,28.75,WSW,247,1.0,6.0,100,0.00,,,0.00,0,Rainwise IP-100,2018-01-20 06:45:00,
2018-01-20 01:50:00,22.0,23.0,28.75,West,270,0.0,4.0,99,0.00,,,0.00,0,Rainwise IP-100,2018-01-20 06:50:00,
2018-01-20 01:55:00,22.1,23.0,28.75,WSW,247,1.0,5.0,98,0.00,,,0.00,0,Rainwise IP-100,2018-01-20 06:55:00,
2018-01-20 02:01:00,22.2,23.0,28.76,WSW,247,0.0,3.0,98,0.00,,,0.00,0,Rainwise IP-100,2018-01-20 07:01:00,
2018-01-20 02:06:00,21.9,23.0,28.76,WSW,247,0.0,1.0,97,0.00,,,0.00,0,Rainwise IP-100,2018-01-20 07:06:00,
2018-01-20 02:11:00,21.4,21.0,28.76,WSW,247,0.0,0.0,98,0.00,,,0.00,0,Rainwise IP-100,2018-01-20 07:11:00,
2018-01-20 02:16:00,20.9,21.0,28.77,WSW,247,0.0,0.0,98,0.00,,,0.00,0,Rainwise IP-100,2018-01-20 07:16:00,
2018-01-20 02:21:00,20.4,21.0,28.77,WSW,247,0.0,0.0,100,0.00,,,0.00,0,Rainwise IP-100,2018-01-20 07:21:00,
2018-01-20 02:26:00,20.2,21.0,28.77,WSW,247,0.0,0.0,100,0.00,,,0.00,0,Rainwise IP-100,2018-01-20 07:26:00,
2018-01-20 02:31:00,19.9,21.0,28.77,WSW,247,0.0,0.0,100,0.00,,,0.00,0,Rainwise IP-100,2018-01-20 07:31:00,
2018-01-20 02:37:00,19.6,21.0,28.76,WSW,247,0.0,0.0,100,0.00,,,0.00,0,Rainwise IP-100,2018-01-20 07:37:00,
2018-01-20 02:42:00,19.2,21.0,28.77,WSW,247,1.0,2.0,100,0.00,,,0.00,0,Rainwise IP-100,2018-01-20 07:42:00,
2018-01-20 02:47:00,19.1,21.0,28.76,WSW,247,0.0,1.0,100,0.00,,,0.00,0,Rainwise IP-100,2018-01-20 07:47:00,
2018-01-20 02:52:00,18.9,21.0,28.76,WSW,247,0.0,1.0,100,0.00,,,0.00,0,Rainwise IP-100,2018-01-20 07:52:00,
2018-01-20 02:57:00,18.6,21.0,28.76,WSW,247,0.0,0.0,100,0.00,,,0.00,0,Rainwise IP-100,2018-01-20 07:57:00,
2018-01-20 03:02:00,18.1,18.0,28.75,WSW,247,0.0,0.0,100,0.00,,,0.00,0,Rainwise IP-100,2018-01-20 08:02:00,
2018-01-20 03:07:00,17.9,18.0,28.75,WSW,247,0.0,0.0,100,0.00,,,0.00,0,Rainwise IP-100,2018-01-20 08:07:00,
2018-01-20 03:12:00,17.9,18.0,28.74,WSW,247,0.0,0.0,100,0.00,,,0.00,0,Rainwise IP-100,2018-01-20 08:12:00,
2018-01-20 03:18:00,17.8,18.0,28.74,WSW,247,0.0,0.0,100,0.00,,,0.00,0,Rainwise IP-100,2018-01-20 08:18:00,
2018-01-20 03:23:00,17.4,18.0,28.73,WSW,247,0.0,0.0,100,0.00,,,0.00,0,Rainwise IP-100,2018-01-20 08:23:00,
2018-01-20 03:28:00,17.1,18.0,28.73,WSW,247,0.0,1.0,100,0.00,,,0.00,0,Rainwise IP-100,2018-01-20 08:28:00,
2018-01-20 03:33:00,17.4,18.0,28.73,WSW,247,0.0,1.0,100,0.00,,,0.00,0,Rainwise IP-100,2018-01-20 08:33:00,
2018-01-20 03:38:00,17.6,18.0,28.73,WSW,247,0.0,0.0,100,0.00,,,0.00,0,Rainwise IP-100,2018-01-20 08:38:00,
2018-01-20 03:43:00,18.2,18.0,28.73,ESE,112,2.0,2.0,100,0.00,,,0.00,0,Rainwise IP-100,2018-01-20 08:43:00,
2018-01-20 03:48:00,20.3,21.0,28.73,ENE,67,2.0,5.0,100,0.00,,,0.00,0,Rainwise IP-100,2018-01-20 08:48:00,
2018-01-20 03:54:00,20.6,21.0,28.72,South,180,0.0,6.0,100,0.00,,,0.00,0,Rainwise IP-100,2018-01-20 08:54:00,
2018-01-20 03:59:00,20.5,21.0,28.72,South,180,0.0,4.0,100,0.00,,,0.00,0,Rainwise IP-100,2018-01-20 08:59:00,
2018-01-20 04:04:00,20.9,21.0,28.71,SW,225,1.0,6.0,100,0.00,,,0.00,0,Rainwise IP-100,2018-01-20 09:04:00,
2018-01-20 04:09:00,21.9,23.0,28.70,WSW,247,1.0,7.0,100,0.00,,,0.00,0,Rainwise IP-100,2018-01-20 09:09:00,
2018-01-20 04:14:00,22.4,23.0,28.70,WSW,247,0.0,7.0,100,0.00,,,0.00,0,Rainwise IP-100,2018-01-20 09:14:00,
2018-01-20 04:19:00,22.5,23.0,28.70,SSE,157,0.0,5.0,99,0.00,,,0.00,0,Rainwise IP-100,2018-01-20 09:19:00,
2018-01-20 04:24:00,22.7,23.0,28.69,SE,135,0.0,7.0,99,0.00,,,0.00,0,Rainwise IP-100,2018-01-20 09:24:00,
2018-01-20 04:29:00,22.7,23.0,28.70,SE,135,2.0,2.0,99,0.00,,,0.00,0,Rainwise IP-100,2018-01-20 09:29:00,
2018-01-20 04:35:00,22.5,23.0,28.69,SE,135,0.0,2.0,99,0.00,,,0.00,0,Rainwise IP-100,2018-01-20 09:35:00,
2018-01-20 04:40:00,22.2,23.0,28.69,South,180,0.0,5.0,99,0.00,,,0.00,0,Rainwise IP-100,2018-01-20 09:40:00,
2018-01-20 04:45:00,22.1,23.0,28.69,SSE,157,0.0,6.0,99,0.00,,,0.00,0,Rainwise IP-100,2018-01-20 09:45:00,
2018-01-20 04:50:00,22.2,23.0,28.68,SW,225,2.0,4.0,99,0.00,,,0.00,0,Rainwise IP-100,2018-01-20 09:50:00,
2018-01-20 04:55:00,22.5,23.0,28.68,SSW,202,1.0,6.0,99,0.00,,,0.00,0,Rainwise IP-100,2018-01-20 09:55:00,
2018-01-20 05:00:00,22.9,23.0,28.68,WNW,292,5.0,7.0,98,0.00,,,0.00,0,Rainwise IP-100,2018-01-20 10:00:00,
2018-01-20 05:05:00,23.4,23.0,28.68,West,270,2.0,6.0,96,0.00,,,0.00,0,Rainwise IP-100,2018-01-20 10:05:00,
2018-01-20 05:11:00,23.5,23.0,28.68,SSE,157,3.0,6.0,95,0.00,,,0.00,0,Rainwise IP-100,2018-01-20 10:11:00,
2018-01-20 05:16:00,23.5,23.0,28.68,WSW,247,2.0,4.0,95,0.00,,,0.00,0,Rainwise IP-100,2018-01-20 10:16:00,
2018-01-20 05:21:00,23.6,23.0,28.67,SSE,157,1.0,6.0,95,0.00,,,0.00,0,Rainwise IP-100,2018-01-20 10:21:00,
2018-01-20 05:26:00,23.9,23.0,28.67,SW,225,0.0,9.0,94,0.00,,,0.00,0,Rainwise IP-100,2018-01-20 10:26:00,
2018-01-20 05:31:00,23.9,23.0,28.67,ESE,112,2.0,3.0,94,0.00,,,0.00,0,Rainwise IP-100,2018-01-20 10:31:00,
2018-01-20 05:36:00,23.9,23.0,28.67,North,360,0.0,3.0,94,0.00,,,0.00,0,Rainwise IP-100,2018-01-20 10:36:00,
2018-01-20 05:41:00,24.2,23.0,28.67,ENE,67,0.0,4.0,94,0.00,,,0.00,0,Rainwise IP-100,2018-01-20 10:41:00,
2018-01-20 05:46:00,24.3,23.0,28.67,ENE,67,2.0,4.0,94,0.00,,,0.00,0,Rainwise IP-100,2018-01-20 10:46:00,
2018-01-20 05:52:00,24.1,23.0,28.66,ENE,67,0.0,3.0,94,0.00,,,0.00,0,Rainwise IP-100,2018-01-20 10:52:00,
2018-01-20 05:57:00,23.9,23.0,28.66,ENE,67,1.0,2.0,94,0.00,,,0.00,0,Rainwise IP-100,2018-01-20 10:57:00,
2018-01-20 06:02:00,24.0,23.0,28.66,SSE,157,5.0,5.0,95,0.00,,,0.00,0,Rainwise IP-100,2018-01-20 11:02:00,
2018-01-20 06:07:00,24.8,24.0,28.66,SSW,202,3.0,10.0,94,0.00,,,0.00,0,Rainwise IP-100,2018-01-20 11:07:00,
2018-01-20 06:12:00,25.3,24.0,28.66,East,90,4.0,6.0,93,0.00,,,0.00,0,Rainwise IP-100,2018-01-20 11:12:00,
2018-01-20 06:17:00,25.6,24.0,28.67,NE,45,7.0,7.0,91,0.00,,,0.00,0,Rainwise IP-100,2018-01-20 11:17:00,
2018-01-20 06:22:00,24.4,23.0,28.67,ENE,67,1.0,7.0,93,0.00,,,0.00,0,Rainwise IP-100,2018-01-20 11:22:00,
2018-01-20 06:28:00,24.1,23.0,28.66,ENE,67,0.0,4.0,93,0.00,,,0.00,0,Rainwise IP-100,2018-01-20 11:28:00,
2018-01-20 06:33:00,23.9,23.0,28.66,ENE,67,0.0,1.0,94,0.00,,,0.00,0,Rainwise IP-100,2018-01-20 11:33:00,
2018-01-20 06:38:00,23.9,23.0,28.66,ENE,67,0.0,1.0,94,0.00,,,0.00,0,Rainwise IP-100,2018-01-20 11:38:00,
2018-01-20 06:43:00,24.1,23.0,28.66,SSE,157,0.0,5.0,94,0.00,,,0.00,0,Rainwise IP-100,2018-01-20 11:43:00,
2018-01-20 06:48:00,24.5,24.0,28.66,ESE,112,1.0,5.0,94,0.00,,,0.00,0,Rainwise IP-100,2018-01-20 11:48:00,
2018-01-20 06:53:00,24.9,24.0,28.66,SE,135,2.0,4.0,93,0.00,,,0.00,0,Rainwise IP-100,2018-01-20 11:53:00,
2018-01-20 06:58:00,24.6,24.0,28.66,ESE,112,0.0,3.0,93,0.00,,,0.00,0,Rainwise IP-100,2018-01-20 11:58:00,
2018-01-20 07:03:00,23.9,23.0,28.66,ESE,112,0.0,2.0,94,0.00,,,0.00,0,Rainwise IP-100,2018-01-20 12:03:00,
2018-01-20 07:09:00,23.9,23.0,28.65,SE,135,1.0,6.0,95,0.00,,,0.00,0,Rainwise IP-100,2018-01-20 12:09:00,
2018-01-20 07:14:00,24.4,23.0,28.66,West,270,2.0,6.0,95,0.00,,,0.00,0,Rainwise IP-100,2018-01-20 12:14:00,
2018-01-20 07:19:00,25.0,24.0,28.66,SSE,157,0.0,6.0,94,0.00,,,0.00,0,Rainwise IP-100,2018-01-20 12:19:00,
2018-01-20 07:24:00,24.9,24.0,28.66,West,270,0.0,3.0,93,0.00,,,0.00,0,Rainwise IP-100,2018-01-20 12:24:00,
2018-01-20 07:29:00,24.4,23.0,28.67,SSE,157,0.0,3.0,93,0.00,,,0.00,8,Rainwise IP-100,2018-01-20 12:29:00,
2018-01-20 07:34:00,23.9,23.0,28.66,SE,135,0.0,3.0,93,0.00,,,0.00,11,Rainwise IP-100,2018-01-20 12:34:00,
2018-01-20 07:39:00,23.6,23.0,28.65,NW,315,0.0,4.0,94,0.00,,,0.00,18,Rainwise IP-100,2018-01-20 12:39:00,
2018-01-20 07:45:00,23.4,23.0,28.65,NW,315,5.0,6.0,97,0.00,,,0.00,24,Rainwise IP-100,2018-01-20 12:45:00,
2018-01-20 07:50:00,23.5,23.0,28.66,NNW,337,3.0,7.0,96,0.00,,,0.00,28,Rainwise IP-100,2018-01-20 12:50:00,
2018-01-20 07:55:00,23.9,23.0,28.65,SW,225,0.0,6.0,96,0.00,,,0.00,31,Rainwise IP-100,2018-01-20 12:55:00,
2018-01-20 08:00:00,24.7,24.0,28.66,WSW,247,6.0,7.0,96,0.00,,,0.00,34,Rainwise IP-100,2018-01-20 13:00:00,
2018-01-20 08:05:00,25.3,24.0,28.66,NW,315,6.0,8.0,93,0.00,,,0.00,36,Rainwise IP-100,2018-01-20 13:05:00,
2018-01-20 08:10:00,25.6,24.0,28.66,SW,225,1.0,9.0,92,0.00,,,0.00,38,Rainwise IP-100,2018-01-20 13:10:00,
2018-01-20 08:15:00,25.8,24.0,28.67,West,270,3.0,7.0,92,0.00,,,0.00,37,Rainwise IP-100,2018-01-20 13:15:00,
2018-01-20 08:20:00,25.9,24.0,28.67,ENE,67,1.0,7.0,92,0.00,,,0.00,37,Rainwise IP-100,2018-01-20 13:20:00,
2018-01-20 08:26:00,26.2,24.0,28.66,SSE,157,4.0,4.0,93,0.00,,,0.00,44,Rainwise IP-100,2018-01-20 13:26:00,
2018-01-20 08:31:00,28.2,24.0,28.66,SW,225,6.0,11.0,87,0.00,,,0.00,49,Rainwise IP-100,2018-01-20 13:31:00,
2018-01-20 08:36:00,28.9,26.0,28.65,WSW,247,3.0,7.0,86,0.00,,,0.00,55,Rainwise IP-100,2018-01-20 13:36:00,
2018-01-20 08:41:00,29.8,26.0,28.65,NW,315,18.0,18.0,82,0.00,,,0.00,60,Rainwise IP-100,2018-01-20 13:41:00,
2018-01-20 08:46:00,35.9,26.0,28.66,WNW,292,13.0,18.0,66,0.00,,,0.00,65,Rainwise IP-100,2018-01-20 13:46:00,
2018-01-20 08:51:00,39.4,26.0,28.66,NW,315,6.0,19.0,57,0.00,,,0.00,77,Rainwise IP-100,2018-01-20 13:51:00,
2018-01-20 08:56:00,40.2,26.0,28.67,NW,315,14.0,16.0,55,0.00,,,0.00,72,Rainwise IP-100,2018-01-20 13:56:00,
2018-01-20 09:02:00,40.2,26.0,28.68,WSW,247,6.0,19.0,54,0.00,,,0.00,97,Rainwise IP-100,2018-01-20 14:02:00,
2018-01-20 09:07:00,40.5,26.0,28.68,WSW,247,7.0,18.0,55,0.00,,,0.00,74,Rainwise IP-100,2018-01-20 14:07:00,
2018-01-20 09:12:00,40.8,26.0,28.68,West,270,8.0,14.0,54,0.00,,,0.00,65,Rainwise IP-100,2018-01-20 14:12:00,
2018-01-20 09:17:00,40.8,26.0,28.68,West,270,7.0,16.0,54,0.00,,,0.00,62,Rainwise IP-100,2018-01-20 14:17:00,
2018-01-20 09:22:00,40.8,26.0,28.68,West,270,10.0,22.0,54,0.00,,,0.00,68,Rainwise IP-100,2018-01-20 14:22:00,
2018-01-20 09:27:00,40.8,26.0,28.68,WSW,247,10.0,17.0,53,0.00,,,0.00,74,Rainwise IP-100,2018-01-20 14:27:00,
2018-01-20 09:32:00,41.0,26.0,28.68,WNW,292,9.0,21.0,54,0.00,,,0.00,86,Rainwise IP-100,2018-01-20 14:32:00,
2018-01-20 09:37:00,41.2,26.0,28.68,WSW,247,7.0,19.0,52,0.00,,,0.00,291,Rainwise IP-100,2018-01-20 14:37:00,
2018-01-20 09:43:00,41.9,26.0,28.68,NW,315,7.0,19.0,53,0.00,,,0.00,283,Rainwise IP-100,2018-01-20 14:43:00,
2018-01-20 09:48:00,41.8,26.0,28.69,SW,225,10.0,17.0,52,0.00,,,0.00,265,Rainwise IP-100,2018-01-20 14:48:00,
2018-01-20 09:53:00,41.7,26.0,28.69,WNW,292,12.0,22.0,53,0.00,,,0.00,287,Rainwise IP-100,2018-01-20 14:53:00,
2018-01-20 09:58:00,41.9,26.0,28.69,West,270,12.0,19.0,52,0.00,,,0.00,265,Rainwise IP-100,2018-01-20 14:58:00,
2018-01-20 10:03:00,41.6,28.0,28.70,WSW,247,7.0,18.0,54,0.00,,,0.00,226,Rainwise IP-100,2018-01-20 15:03:00,
2018-01-20 10:08:00,41.8,26.0,28.69,WSW,247,10.0,22.0,52,0.00,,,0.00,304,Rainwise IP-100,2018-01-20 15:08:00,
2018-01-20 10:13:00,41.5,26.0,28.69,WSW,247,13.0,22.0,53,0.00,,,0.00,146,Rainwise IP-100,2018-01-20 15:13:00,
2018-01-20 10:19:00,41.4,26.0,28.69,West,270,6.0,17.0,54,0.00,,,0.00,234,Rainwise IP-100,2018-01-20 15:19:00,
2018-01-20 10:24:00,41.4,26.0,28.70,West,270,7.0,20.0,54,0.00,,,0.00,201,Rainwise IP-100,2018-01-20 15:24:00,
2018-01-20 10:29:00,41.6,28.0,28.70,WSW,247,4.0,17.0,56,0.00,,,0.00,296,Rainwise IP-100,2018-01-20 15:29:00,
2018-01-20 10:34:00,41.9,26.0,28.70,West,270,5.0,17.0,53,0.00,,,0.00,253,Rainwise IP-100,2018-01-20 15:34:00,
2018-01-20 10:39:00,42.1,28.0,28.70,WSW,247,12.0,15.0,54,0.06,,,0.01,276,Rainwise IP-100,2018-01-20 15:39:00,
2018-01-20 10:44:00,41.8,26.0,28.70,WNW,292,13.0,16.0,53,0.06,,,0.01,312,Rainwise IP-100,2018-01-20 15:44:00,
2018-01-20 10:49:00,41.9,26.0,28.70,NW,315,10.0,19.0,53,0.00,,,0.01,215,Rainwise IP-100,2018-01-20 15:49:00,
2018-01-20 10:54:00,41.9,26.0,28.70,WSW,247,9.0,16.0,53,0.06,,,0.02,323,Rainwise IP-100,2018-01-20 15:54:00,
2018-01-20 11:00:00,41.7,28.0,28.70,WSW,247,12.0,23.0,54,0.12,,,0.03,154,Rainwise IP-100,2018-01-20 16:00:00,
2018-01-20 11:05:00,41.9,28.0,28.70,West,270,10.0,17.0,54,0.12,,,0.04,345,Rainwise IP-100,2018-01-20 16:05:00,
2018-01-20 11:10:00,41.9,28.0,28.70,NW,315,9.0,16.0,54,0.06,,,0.04,345,Rainwise IP-100,2018-01-20 16:10:00,
2018-01-20 11:15:00,42.4,28.0,28.69,West,270,8.0,17.0,54,0.00,,,0.04,532,Rainwise IP-100,2018-01-20 16:15:00,
2018-01-20 11:20:00,42.9,28.0,28.69,West,270,4.0,15.0,52,0.06,,,0.05,454,Rainwise IP-100,2018-01-20 16:20:00,
2018-01-20 11:25:00,42.9,28.0,28.69,WNW,292,10.0,15.0,52,0.06,,,0.05,480,Rainwise IP-100,2018-01-20 16:25:00,
2018-01-20 11:30:00,43.3,26.0,28.69,WSW,247,6.0,15.0,51,0.06,,,0.06,529,Rainwise IP-100,2018-01-20 16:30:00,
2018-01-20 11:36:00,43.4,28.0,28.69,WSW,247,1.0,16.0,52,0.06,,,0.06,503,Rainwise IP-100,2018-01-20 16:36:00,
2018-01-20 11:41:00,43.8,28.0,28.69,NW,315,9.0,11.0,52,0.00,,,0.06,510,Rainwise IP-100,2018-01-20 16:41:00,
2018-01-20 11:46:00,43.4,26.0,28.69,SW,225,9.0,13.0,51,0.06,,,0.07,274,Rainwise IP-100,2018-01-20 16:46:00,
2018-01-20 11:51:00,43.4,26.0,28.69,WNW,292,1.0,14.0,51,0.06,,,0.07,262,Rainwise IP-100,2018-01-20 16:51:00,
2018-01-20 11:56:00,43.2,28.0,28.69,WSW,247,1.0,17.0,52,0.06,,,0.08,296,Rainwise IP-100,2018-01-20 16:56:00,
2018-01-20 12:01:00,43.2,28.0,28.69,WSW,247,12.0,20.0,53,0.06,,,0.08,297,Rainwise IP-100,2018-01-20 17:01:00,
2018-01-20 12:06:00,42.8,28.0,28.69,WNW,292,15.0,15.0,54,0.00,,,0.08,303,Rainwise IP-100,2018-01-20 17:06:00,
2018-01-20 12:11:00,43.0,28.0,28.69,WSW,247,9.0,16.0,52,0.06,,,0.09,411,Rainwise IP-100,2018-01-20 17:11:00,
2018-01-20 12:17:00,43.5,29.0,28.68,South,180,6.0,15.0,54,0.06,,,0.09,540,Rainwise IP-100,2018-01-20 17:17:00,
2018-01-20 12:22:00,43.6,28.0,28.68,SSW,202,4.0,17.0,53,0.06,,,0.10,377,Rainwise IP-100,2018-01-20 17:22:00,
2018-01-20 12:27:00,43.5,28.0,28.68,WSW,247,12.0,15.0,53,0.06,,,0.10,404,Rainwise IP-100,2018-01-20 17:27:00,
2018-01-20 12:32:00,43.5,29.0,28.69,WSW,247,12.0,22.0,54,0.00,,,0.10,233,Rainwise IP-100,2018-01-20 17:32:00,
2018-01-20 12:37:00,43.4,28.0,28.68,WSW,247,8.0,14.0,54,0.00,,,0.11,299,Rainwise IP-100,2018-01-20 17:37:00,
2018-01-20 12:42:00,43.4,28.0,28.68,NW,315,16.0,16.0,52,0.06,,,0.11,288,Rainwise IP-100,2018-01-20 17:42:00,
2018-01-20 12:47:00,43.5,28.0,28.68,WSW,247,10.0,21.0,53,0.06,,,0.11,273,Rainwise IP-100,2018-01-20 17:47:00,
2018-01-20 12:53:00,43.5,29.0,28.69,WNW,292,7.0,18.0,54,0.06,,,0.12,254,Rainwise IP-100,2018-01-20 17:53:00,
2018-01-20 12:58:00,43.6,28.0,28.69,WNW,292,9.0,17.0,53,0.06,,,0.12,213,Rainwise IP-100,2018-01-20 17:58:00,
2018-01-20 13:03:00,43.9,29.0,28.69,NNW,337,7.0,16.0,55,0.00,,,0.12,305,Rainwise IP-100,2018-01-20 18:03:00,
2018-01-20 13:08:00,44.1,28.0,28.68,WNW,292,10.0,20.0,53,0.06,,,0.13,299,Rainwise IP-100,2018-01-20 18:08:00,
2018-01-20 13:13:00,44.2,28.0,28.69,NW,315,11.0,17.0,53,0.06,,,0.13,191,Rainwise IP-100,2018-01-20 18:13:00,
2018-01-20 13:18:00,44.2,28.0,28.69,WSW,247,12.0,17.0,53,0.06,,,0.14,229,Rainwise IP-100,2018-01-20 18:18:00,
2018-01-20 13:23:00,44.2,28.0,28.69,WSW,247,9.0,17.0,53,0.06,,,0.14,188,Rainwise IP-100,2018-01-20 18:23:00,
2018-01-20 13:28:00,44.3,28.0,28.70,West,270,7.0,18.0,53,0.00,,,0.14,237,Rainwise IP-100,2018-01-20 18:28:00,
2018-01-20 13:34:00,44.5,29.0,28.69,WNW,292,13.0,15.0,53,0.06,,,0.15,315,Rainwise IP-100,2018-01-20 18:34:00,
2018-01-20 13:39:00,44.9,29.0,28.70,WNW,292,2.0,19.0,52,0.06,,,0.15,333,Rainwise IP-100,2018-01-20 18:39:00,
2018-01-20 13:44:00,44.9,29.0,28.70,West,270,7.0,16.0,52,0.06,,,0.16,329,Rainwise IP-100,2018-01-20 18:44:00,
2018-01-20 13:49:00,45.3,29.0,28.71,WNW,292,4.0,15.0,52,0.06,,,0.16,323,Rainwise IP-100,2018-01-20 18:49:00,
2018-01-20 13:54:00,45.5,29.0,28.71,West,270,13.0,17.0,52,0.00,,,0.16,479,Rainwise IP-100,2018-01-20 18:54:00,
2018-01-20 13:59:00,45.9,29.0,28.71,West,270,7.0,15.0,51,0.06,,,0.17,514,Rainwise IP-100,2018-01-20 18:59:00,
2018-01-20 14:04:00,46.3,29.0,28.71,West,270,6.0,16.0,50,0.06,,,0.17,500,Rainwise IP-100,2018-01-20 19:04:00,
2018-01-20 14:10:00,46.6,29.0,28.72,WSW,247,6.0,12.0,50,0.06,,,0.18,487,Rainwise IP-100,2018-01-20 19:10:00,
2018-01-20 14:15:00,46.6,29.0,28.72,WSW,247,5.0,12.0,50,0.06,,,0.18,482,Rainwise IP-100,2018-01-20 19:15:00,
2018-01-20 14:20:00,46.5,29.0,28.72,NNW,337,7.0,13.0,50,0.00,,,0.18,478,Rainwise IP-100,2018-01-20 19:20:00,
2018-01-20 14:25:00,46.7,29.0,28.72,NNW,337,7.0,13.0,50,0.00,,,0.19,479,Rainwise IP-100,2018-01-20 19:25:00,
2018-01-20 14:30:00,46.9,29.0,28.72,SSW,202,7.0,11.0,50,0.06,,,0.19,470,Rainwise IP-100,2018-01-20 19:30:00,
2018-01-20 14:35:00,46.7,29.0,28.73,WNW,292,7.0,15.0,50,0.06,,,0.19,459,Rainwise IP-100,2018-01-20 19:35:00,
2018-01-20 14:40:00,46.8,29.0,28.73,WSW,247,9.0,12.0,50,0.06,,,0.20,446,Rainwise IP-100,2018-01-20 19:40:00,
2018-01-20 14:45:00,46.9,29.0,28.74,West,270,8.0,11.0,50,0.06,,,0.20,414,Rainwise IP-100,2018-01-20 19:45:00,
2018-01-20 14:51:00,46.8,29.0,28.74,West,270,5.0,13.0,50,0.00,,,0.20,426,Rainwise IP-100,2018-01-20 19:51:00,
2018-01-20 14:56:00,46.8,29.0,28.74,WNW,292,4.0,12.0,50,0.00,,,0.20,414,Rainwise IP-100,2018-01-20 19:56:00,
2018-01-20 15:01:00,46.7,29.0,28.74,NW,315,7.0,12.0,50,0.00,,,0.20,337,Rainwise IP-100,2018-01-20 20:01:00,